Location: Belloy
(55.7522°N, 118.2333°W)
Time: 23:54:55
(UTC+00:00)

Envisat - Pass Details

Date: 05 December 2021
Orbit: 764 x 766 km, 98.2° (Epoch: 27 January)

Event Time Altitude Azimuth Distance (km) Brightness Sun altitude
Rises 01:12:32 0° 208° (SSW) 3,225 7.0 -14.2°
Reaches altitude 10° 01:15:25 10° 225° (SW) 2,304 6.5 -14.5°
Maximum altitude 01:19:08 20° 272° (W) 1,714 5.7 -15.0°
Drops below altitude 10° 01:22:53 10° 320° (NW) 2,317 5.8 -15.5°
Sets 01:25:48 0° 337° (NNW) 3,249 6.3 -15.9°
